{"data":{"norad_id":64687,"intl_designator":"2025-139Z","name":"STARLINK-34554","alt_names":[],"object_type":"PAYLOAD","status":"ACTIVE","operator":null,"country":"US","launch_date":"2025-06-28","launch_site_code":"AFETR","launch_vehicle":null,"mission":null,"orbit_class":"UNKNOWN","rcs_meters":null,"size_class":null,"mass_kg":null,"dimensions":null,"purposes":["comms"],"wikipedia_slug":null,"has_3d_model":false,"image_url":null,"decayed_at":null,"tle_current":{"epoch":"2026-05-25T03:22:53.976000Z","epoch_age_seconds":56908,"freshness":"FRESH","line1":"1 64687U 25139Z   26145.14090250  .00018404  00000+0  55427-3 0  9992","line2":"2 64687  53.1596 130.8980 0001155 122.8068 237.3046 15.34411854 52008","mean_motion":15.34411854,"eccentricity":0.0001155,"inclination_deg":53.1596,"raan_deg":130.898,"arg_perigee_deg":122.8068,"mean_anomaly_deg":237.3046,"bstar":0.00055427,"rev_number":5200,"period_min":93.847033066521,"perigee_km":461.8778948694,"apogee_km":463.45812082622,"semimajor_km":6840.8050078478,"source":"CELESTRAK","updated_at":"2026-05-25T13:38:20.508498Z"}}}